• In Netherlands
  • List of Countries
  • For 7 days
  • Water Temperature
  • Satellite Maps
  • Weather Map
  • Weather Widgets
  • user-avatar
    Login

    Hourly Weather Kiustendil

    Today, 29 March, Wednesday

    Time Temperature Precipitation Wind Pressure Humidity
    00:00 -1°C° 0 mm 1 mps 625 mmHg 71%
    01:00 -2°C° 0 mm 1 mps 624 mmHg 73%
    02:00 -2°C° 0 mm 1 mps 624 mmHg 75%
    03:00 -2°C° 0 mm 1 mps 624 mmHg 78%
    04:00 -3°C° 0 mm 1 mps 624 mmHg 80%
    05:00 -1°C° 0 mm 1 mps 625 mmHg 73%
    06:00 +1°C° 0 mm 1 mps 626 mmHg 66%
    07:00 +2°C° 0 mm 1 mps 627 mmHg 59%
    08:00 +4°C° 0 mm 1 mps 627 mmHg 50%
    09:00 +7°C° 0 mm 1 mps 628 mmHg 42%
    10:00 +9°C° 0 mm 1 mps 629 mmHg 34%
    11:00 +10°C° 0 mm 1 mps 629 mmHg 31%
    12:00 +10°C° 0 mm 2 mps 629 mmHg 28%
    13:00 +12°C° 0 mm 2 mps 629 mmHg 26%
    14:00 +12°C° 0 mm 2 mps 629 mmHg 27%
    15:00 +10°C° 0 mm 2 mps 628 mmHg 28%
    16:00 +10°C° 0 mm 2 mps 628 mmHg 30%
    17:00 +8°C° 0 mm 2 mps 627 mmHg 38%
    18:00 +5°C° 0 mm 2 mps 626 mmHg 46%
    19:00 +3°C° 0 mm 1 mps 625 mmHg 53%
    20:00 +3°C° 0 mm 1 mps 625 mmHg 56%
    21:00 +2°C° 0 mm 1 mps 625 mmHg 58%
    22:00 +1°C° 0 mm 1 mps 625 mmHg 61%
    23:00 +1°C° 0 mm 1 mps 625 mmHg 64%

    Tomorrow, 30 March, Thursday

    Time Temperature Precipitation Wind Pressure Humidity
    00:00 +1°C° 0 mm 1 mps 625 mmHg 67%
    01:00 0°C° 0 mm 1 mps 625 mmHg 70%
    02:00 0°C° 0 mm 1 mps 625 mmHg 73%
    03:00 0°C° 0 mm 1 mps 624 mmHg 75%
    04:00 -2°C° 0 mm 2 mps 624 mmHg 78%
    05:00 -1°C° 0 mm 2 mps 625 mmHg 74%
    06:00 +1°C° 0 mm 2 mps 626 mmHg 71%
    07:00 +3°C° 0 mm 2 mps 626 mmHg 67%
    08:00 +5°C° 0 mm 2 mps 627 mmHg 60%
    09:00 +7°C° 0 mm 3 mps 628 mmHg 53%
    10:00 +9°C° 0 mm 3 mps 628 mmHg 47%
    11:00 +8°C° 0 mm 4 mps 628 mmHg 44%
    12:00 +10°C° 0 mm 4 mps 628 mmHg 42%
    13:00 +11°C° 0 mm 4 mps 628 mmHg 39%
    14:00 +10°C° 0 mm 4 mps 628 mmHg 42%
    15:00 +10°C° 0 mm 4 mps 628 mmHg 45%
    16:00 +8°C° 0 mm 4 mps 628 mmHg 48%
    17:00 +6°C° 0 mm 4 mps 627 mmHg 57%
    18:00 +5°C° 0 mm 3 mps 627 mmHg 66%
    19:00 +4°C° 0 mm 2 mps 627 mmHg 75%
    20:00 +3°C° 0 mm 2 mps 627 mmHg 78%
    21:00 +2°C° 0 mm 2 mps 627 mmHg 82%
    22:00 +2°C° 0 mm 2 mps 627 mmHg 85%
    23:00 +1°C° 0 mm 2 mps 627 mmHg 87%

    Day after tomorrow, 31 March, Friday

    Time Temperature Precipitation Wind Pressure Humidity
    00:00 +1°C° 0 mm 2 mps 627 mmHg 89%
    01:00 -1°C° 0 mm 2 mps 627 mmHg 91%
    02:00 -1°C° 0 mm 2 mps 627 mmHg 91%
    03:00 -1°C° 0 mm 2 mps 627 mmHg 91%
    04:00 -2°C° 0 mm 2 mps 627 mmHg 92%
    05:00 -1°C° 0 mm 2 mps 627 mmHg 87%
    06:00 +1°C° 0 mm 2 mps 628 mmHg 83%
    07:00 +2°C° 0 mm 2 mps 629 mmHg 78%
    08:00 +4°C° 0 mm 2 mps 629 mmHg 70%
    09:00 +5°C° 0 mm 2 mps 630 mmHg 61%
    10:00 +7°C° 0 mm 2 mps 630 mmHg 52%
    11:00 +8°C° 0.1 mm 2 mps 630 mmHg 49%
    12:00 +8°C° 0.1 mm 3 mps 630 mmHg 46%
    13:00 +9°C° 0.1 mm 3 mps 630 mmHg 42%
    14:00 +8°C° 0.1 mm 3 mps 630 mmHg 44%
    15:00 +8°C° 0.1 mm 3 mps 629 mmHg 46%
    16:00 +6°C° 0.1 mm 4 mps 629 mmHg 47%
    17:00 +4°C° 0.1 mm 3 mps 628 mmHg 56%
    18:00 +3°C° 0.1 mm 2 mps 628 mmHg 64%
    19:00 +1°C° 0.1 mm 2 mps 627 mmHg 72%
    20:00 -1°C° 0 mm 2 mps 627 mmHg 76%
    21:00 +1°C° 0 mm 1 mps 627 mmHg 80%
    22:00 0°C° 0 mm 1 mps 627 mmHg 84%
    23:00 -1°C° 0 mm 1 mps 626 mmHg 86%

    1 April, Saturday

    Time Temperature Precipitation Wind Pressure Humidity
    00:00 -1°C° 0 mm 1 mps 626 mmHg 87%
    01:00 -2°C° 0 mm 1 mps 626 mmHg 89%
    02:00 -2°C° 0 mm 1 mps 625 mmHg 90%
    03:00 -2°C° 0 mm 1 mps 625 mmHg 91%
    04:00 -3°C° 0 mm 1 mps 625 mmHg 92%
    05:00 -1°C° 0 mm 1 mps 625 mmHg 85%
    06:00 0°C° 0 mm 1 mps 626 mmHg 78%
    07:00 +2°C° 0 mm 1 mps 627 mmHg 70%
    08:00 +4°C° 0 mm 1 mps 627 mmHg 60%
    09:00 +6°C° 0 mm 1 mps 628 mmHg 50%
    10:00 +8°C° 0 mm 1 mps 628 mmHg 40%
    11:00 +9°C° 0 mm 1 mps 628 mmHg 37%
    12:00 +10°C° 0 mm 1 mps 628 mmHg 34%
    13:00 +11°C° 0 mm 1 mps 628 mmHg 30%
    14:00 +11°C° 0 mm 1 mps 628 mmHg 32%
    15:00 +10°C° 0 mm 1 mps 627 mmHg 33%
    16:00 +9°C° 0 mm 2 mps 627 mmHg 34%
    17:00 +7°C° 0 mm 1 mps 626 mmHg 42%
    18:00 +5°C° 0 mm 1 mps 625 mmHg 51%
    19:00 +2°C° 0 mm 1 mps 625 mmHg 59%
    20:00 +2°C° 0 mm 1 mps 624 mmHg 63%
    21:00 +1°C° 0 mm 1 mps 624 mmHg 66%
    22:00 0°C° 0 mm 1 mps 624 mmHg 70%
    23:00 0°C° 0 mm 1 mps 624 mmHg 73%

    2 April, Sunday

    Time Temperature Precipitation Wind Pressure Humidity
    00:00 -1°C° 0 mm 1 mps 624 mmHg 77%
    01:00 -1°C° 0 mm 1 mps 624 mmHg 81%
    02:00 -2°C° 0 mm 1 mps 623 mmHg 83%
    03:00 -2°C° 0 mm 1 mps 623 mmHg 85%
    04:00 -2°C° 0 mm 1 mps 623 mmHg 88%
    05:00 -1°C° 0 mm 1 mps 624 mmHg 80%
    06:00 +1°C° 0 mm 1 mps 625 mmHg 73%
    07:00 +2°C° 0 mm 0 mps 626 mmHg 65%
    08:00 +5°C° 0 mm 1 mps 627 mmHg 56%
    09:00 +7°C° 0 mm 1 mps 627 mmHg 47%
    10:00 +9°C° 0 mm 1 mps 628 mmHg 38%
    11:00 +10°C° 0 mm 1 mps 628 mmHg 35%
    12:00 +10°C° 0 mm 2 mps 628 mmHg 32%
    13:00 +12°C° 0 mm 2 mps 628 mmHg 30%
    14:00 +10°C° 0 mm 2 mps 628 mmHg 30%
    15:00 +10°C° 0 mm 2 mps 627 mmHg 31%
    16:00 +9°C° 0 mm 2 mps 627 mmHg 32%
    17:00 +7°C° 0 mm 2 mps 626 mmHg 39%
    18:00 +4°C° 0 mm 2 mps 626 mmHg 47%
    19:00 +2°C° 0 mm 2 mps 625 mmHg 54%
    20:00 +2°C° 0 mm 1 mps 625 mmHg 59%
    21:00 +1°C° 0 mm 1 mps 625 mmHg 64%
    22:00 +1°C° 0 mm 1 mps 625 mmHg 68%
    23:00 0°C° 0 mm 1 mps 624 mmHg 72%

    3 April, Monday

    Time Temperature Precipitation Wind Pressure Humidity
    00:00 -1°C° 0 mm 1 mps 624 mmHg 75%
    01:00 -1°C° 0 mm 1 mps 624 mmHg 78%
    02:00 -2°C° 0 mm 1 mps 624 mmHg 81%
    03:00 -2°C° 0 mm 1 mps 623 mmHg 83%
    04:00 -2°C° 0 mm 1 mps 623 mmHg 85%
    05:00 -1°C° 0 mm 1 mps 624 mmHg 78%
    06:00 +1°C° 0 mm 1 mps 625 mmHg 71%
    07:00 +3°C° 0 mm 1 mps 625 mmHg 64%
    08:00 +5°C° 0 mm 1 mps 626 mmHg 55%
    09:00 +7°C° 0 mm 1 mps 626 mmHg 46%
    10:00 +7°C° 0 mm 2 mps 627 mmHg 37%
    11:00 +8°C° 0 mm 2 mps 627 mmHg 35%
    12:00 +8°C° 0 mm 2 mps 626 mmHg 33%
    13:00 +8°C° 0 mm 3 mps 626 mmHg 31%
    14:00 +8°C° 0 mm 2 mps 625 mmHg 32%
    15:00 +7°C° 0 mm 2 mps 625 mmHg 34%
    16:00 +7°C° 0 mm 2 mps 625 mmHg 35%
    17:00 +5°C° 0 mm 2 mps 624 mmHg 42%
    18:00 +4°C° 0 mm 1 mps 623 mmHg 50%
    19:00 +2°C° 0 mm 1 mps 623 mmHg 57%
    20:00 +2°C° 0.1 mm 1 mps 623 mmHg 62%
    21:00 +1°C° 0.1 mm 1 mps 622 mmHg 67%
    22:00 +1°C° 0.1 mm 1 mps 622 mmHg 72%
    23:00 +1°C° 0.3 mm 1 mps 622 mmHg 76%
    Show more